CZ-6A DEB, 60791

Orbit data source: Space-Track

CZ-6A DEB, 60791 is space debris in LEO originally from a launch on Tue, 06 Aug 2024 UTC launched from the Taiyaun Space Center, China (TSC). Debris objects in space refer to the collection of defunct objects orbiting the Earth. Examples of debris include non-operational satellites, rocket bodies, and fragments generated from explosions, collisions, or faulty payload assembly.

Loading next visibility...
Identifier
60791, 2024-140FS
Orbit
LEO
Country
Flag of CNCN / PRC
Related business
Manufacturer
SAST
Mission
Spacecraft
Bus & Motor
Unknown
Mass
Unknown
Launch date (UTC)
2024-08-06 (2 years ago)
Launch vehicle
Unknown
Launch site
Taiyaun Space Center, China (TSC)
Object type
Payload
Rocket body
Debris
Shape & HBR
Unknown shape, 0.6 m
Radar Cross Section
Medium (>0.1 m² and <1 m²)

Expand to show TLE details & history
Last TLE update: 13 hours ago

TLE from 13 hours ago
0 CZ-6A DEB
1 60791U 24140FS  26171.30746499  .00000449  00000-0  22643-3 0  9990
2 60791  88.8402 262.4171 0076645 213.0762 146.5619 14.13152527 95611
Epoch: 2026-06-20T07:22Z
TLE epoch observation values (Epoch: 2026-06-20T07:22:44.975Z)
Latitude
-0.00003°
Longitude
-116.79426°
Altitude
898.005 km
Speed
7.379 km/s
True Right ascension
17h 29m 40s
True Declination
0° 00' 00"
Sunlit
Object was in full shadow at epoch
Visualization orbit readout
Latitude
Unknown
Longitude
Unknown
Altitude
Unknown
Speed
Unknown
Apparent Right ascension
Unknown
Apparent Declination
Unknown
Sunlit
N/A
Visualization observer readout
Local Sidereal Time
07:24:36
Azimuth
Unknown
Elevation
Unknown
Doppler factor
Unknown
Orbital elements
Apogee altitude
900.932 km
Perigee altitude
790.2 km
Semi-major axis
7,223.703 km
Eccentricity
0.00766
Inclination
88.8402°
RAAN
262.4171°
Arg. of periapsis
213.0762°
True anomaly
147.04202°
Mean anomaly
146.5619°
Eccentric anomaly
146.80234°
Mean motion
3.53511 °/min
Orbital period
101.84 mins
BSTAR
0.00022643
Loading maneuver chart data...
Computing Atmospheric mass density...
Loading historical data...
Loading historical data...
Loading historical data...
Loading historical data...
Loading historical data...
Loading historical data...
Loading historical data...

Documentation

Showing up to 5 results
|